Location: Home
(42.5358°N, 72.7383°W)
Time: 06:22:37
(UTC-05:00)

Courier 1B Rocket - Pass Details

Date: 06 December 2021
Orbit: 920 x 1202 km, 28.2° (Epoch: 25 January)

Event Time Altitude Azimuth Distance (km) Brightness Sun altitude
Rises 20:33:06 0° 216° (SW) 3,782 8.3 -46.2°
Enters shadow 20:33:46 - 213° (SSW) 3,597 8.2 -46.3°
Reaches altitude 10° 20:37:16 10° 193° (SSW) 2,768 - -46.9°
Maximum altitude 20:40:37 14° 163° (SSE) 2,416 - -47.5°
Drops below altitude 10° 20:43:53 10° 132° (SE) 2,683 - -48.1°
Sets 20:47:48 0° 108° (ESE) 3,590 - -48.8°
